Theta_e
336 336 335 335 335 335 335 333 333 333 333 334 334 334 334 334 335 335 335 333 334 333 332 331 330 329 329 330 331 332 334 334 333 334 333 334 333 329 325 323 326 329 331 332 331 330 330 329 328 327 326 328 329 328 327 324 320 320 321 319 317 314 309 307 309 314 315 313 312 315 315 317 317 317 319 320 320 321 320 320 320 320 320 320 320
336 336 335 334 335 335 335 334 333 333 334 335 334 333 333 335 335 334 333 333 333 333 332 332 330 329 329 330 330 331 333 333 333 334 332 333 335 331 326 323 324 326 329 331 331 331 330 330 329 328 327 327 328 327 327 326 323 324 326 325 323 321 316 310 308 309 311 311 309 308 309 311 314 314 316 319 319 320 319 319 319 319 319 319 319
336 337 335 335 334 335 334 334 334 334 335 334 334 333 333 335 334 334 334 334 333 332 332 332 332 330 328 329 329 330 332 333 333 332 332 332 335 333 327 323 324 324 327 330 330 330 331 330 329 329 327 326 327 327 327 325 324 325 327 327 326 324 320 314 309 306 306 306 305 306 307 308 308 308 310 314 316 317 318 318 318 319 319 319 319
337 336 336 335 334 334 334 335 334 334 335 333 333 334 334 334 333 334 335 334 333 332 332 331 332 331 329 328 328 330 330 332 333 331 332 332 334 335 329 324 324 323 325 329 330 330 330 330 329 329 328 327 326 326 326 325 324 325 327 328 327 325 322 317 312 309 306 305 305 305 306 306 306 304 305 309 312 315 317 318 318 318 318 319 319
337 335 334 334 334 335 334 334 334 334 334 332 332 333 333 333 332 333 335 335 333 332 331 331 332 332 330 328 328 329 329 330 331 331 332 332 333 335 333 329 326 324 324 327 329 329 329 330 329 329 328 328 327 326 325 326 325 325 327 327 328 326 323 321 316 313 312 309 308 307 305 306 305 303 303 305 308 312 315 316 316 317 318 318 318
336 335 335 335 335 335 334 334 334 333 333 332 332 333 332 332 332 333 334 334 334 332 331 330 332 332 330 329 328 329 329 328 329 330 331 332 332 334 335 333 330 327 325 325 327 328 328 329 329 328 329 328 327 327 326 326 324 324 327 327 328 326 324 323 320 316 315 313 311 310 308 307 305 303 302 304 304 306 310 313 314 316 317 317 318
335 335 336 335 335 335 334 334 334 333 332 332 332 332 333 332 333 333 332 333 333 332 331 330 330 331 330 330 329 329 329 329 329 330 331 332 332 332 333 333 332 331 329 327 326 327 327 327 327 326 328 328 327 328 327 327 325 324 326 327 328 327 324 325 323 319 318 316 314 313 312 311 309 306 303 302 302 302 305 308 312 315 314 314 316
335 335 335 334 334 334 334 334 333 333 333 332 332 333 333 333 334 333 332 332 332 331 330 330 330 331 332 331 330 330 330 330 331 332 331 332 332 332 332 332 332 332 332 329 328 327 327 326 327 326 327 327 326 328 328 327 326 326 326 327 328 327 324 324 325 324 322 318 316 315 315 314 313 311 306 303 301 301 303 305 310 313 312 311 314
335 335 335 334 334 334 334 334 333 333 333 333 333 333 333 333 334 332 332 331 332 331 330 329 329 331 332 332 332 332 332 332 334 333 332 331 331 332 332 331 331 331 331 330 328 327 327 328 328 327 328 327 324 327 329 327 327 326 326 327 328 327 325 325 325 325 324 321 318 318 318 318 317 315 313 309 304 301 302 303 307 309 311 313 313
335 335 335 334 334 333 333 333 333 332 333 332 333 333 333 332 333 332 331 332 332 332 330 330 330 330 331 333 333 333 334 334 335 334 332 331 331 330 331 331 331 330 329 330 330 328 328 328 328 328 328 327 325 326 327 327 328 328 327 327 329 328 327 325 324 324 324 324 323 322 322 321 321 319 318 316 309 303 301 302 303 303 306 313 315
335 335 335 334 333 332 333 333 332 332 332 332 333 333 333 332 332 332 331 332 332 332 331 330 331 331 332 333 334 334 334 334 333 333 332 332 331 329 330 331 331 331 330 330 330 329 329 328 329 330 329 328 327 327 327 327 329 330 329 328 329 329 328 327 327 326 325 325 324 324 324 323 322 322 320 318 314 308 303 301 302 301 301 307 313
334 334 334 333 332 332 333 333 332 332 332 332 332 332 333 332 333 332 331 332 332 332 331 331 330 330 331 332 333 333 332 333 331 331 332 331 330 330 331 331 331 331 332 331 330 329 330 330 330 330 330 329 328 328 328 328 329 329 330 329 329 329 329 328 328 328 328 327 326 325 325 325 324 324 323 320 318 315 311 305 302 302 301 301 306
332 333 333 333 333 333 333 333 333 332 332 332 332 332 332 333 332 332 332 332 331 331 331 331 330 330 331 331 331 332 331 331 330 330 331 330 330 330 331 331 330 330 331 330 330 330 329 330 329 327 329 330 329 329 328 328 328 328 329 330 330 330 330 329 329 329 329 329 328 326 325 326 326 325 325 324 321 318 318 314 308 304 302 301 301
330 331 331 331 332 333 333 334 333 332 331 332 333 333 332 332 332 331 331 331 330 332 332 331 330 330 332 332 332 332 332 330 329 329 330 331 331 330 331 331 331 331 330 329 328 329 328 329 329 328 328 330 331 331 330 329 329 328 329 330 330 330 330 329 330 330 329 329 330 328 325 324 324 325 326 326 324 321 320 318 315 311 307 303 300
328 328 329 328 329 330 331 331 332 332 332 331 332 332 332 332 333 332 331 331 330 330 331 332 331 329 330 331 331 331 331 330 329 329 329 330 330 331 332 331 332 332 330 330 329 329 329 329 330 330 330 331 331 330 331 331 331 329 329 329 329 329 328 329 330 330 330 329 329 330 328 325 323 323 323 324 325 324 322 321 319 317 313 310 306
326 326 326 327 328 328 328 328 329 330 331 331 332 331 331 331 332 332 331 332 330 329 331 332 332 331 330 330 330 330 330 329 329 330 329 329 329 331 331 331 331 332 330 330 331 331 330 330 329 330 331 330 329 329 329 330 329 329 328 327 327 327 327 328 329 331 331 330 329 329 329 328 327 324 322 321 322 323 323 322 321 319 318 317 314
326 326 325 326 327 327 327 327 327 328 328 329 330 331 331 332 331 331 331 331 330 328 330 332 332 331 331 330 330 330 329 329 330 331 329 329 329 329 330 330 330 331 330 330 330 330 330 329 329 330 330 329 328 327 327 328 328 328 328 327 326 326 327 327 328 330 331 331 330 330 329 329 329 327 324 321 321 322 322 323 323 322 321 320 319
325 325 326 326 327 327 327 327 327 327 327 327 328 329 329 330 331 331 331 332 330 328 329 330 330 330 331 331 330 330 330 329 330 331 329 329 329 329 328 328 328 329 329 329 329 329 329 328 328 329 329 328 328 327 327 328 329 328 328 327 327 326 326 326 326 327 329 330 331 331 330 330 329 329 327 325 325 324 323 323 323 322 323 322 321
326 325 325 326 326 327 327 327 326 326 326 327 327 327 327 328 331 331 331 331 330 330 329 329 330 330 330 330 330 330 330 330 329 329 329 328 328 328 327 327 327 327 327 327 327 327 327 327 328 328 328 328 328 327 327 327 327 327 326 326 326 326 326 326 326 326 327 328 329 329 330 330 330 329 329 328 328 327 326 325 324 324 324 323 323
325 324 324 325 326 326 327 326 325 324 324 325 326 327 327 328 331 331 330 330 330 330 329 328 328 330 330 329 330 331 330 329 329 329 328 328 327 326 326 326 326 326 326 326 326 326 326 326 327 327 326 327 327 327 326 325 324 324 324 325 326 326 327 327 327 327 327 326 327 327 328 328 329 329 329 329 328 328 328 328 327 327 326 325 325
324 324 324 324 325 325 326 325 324 323 322 324 325 326 327 328 330 331 331 331 330 329 329 329 327 329 330 329 329 330 329 328 329 330 329 327 326 325 325 326 325 325 326 325 325 324 324 325 325 324 322 322 322 323 323 323 323 323 323 324 325 326 327 327 327 326 326 326 327 328 329 328 328 328 329 329 328 327 327 328 328 329 328 327 327
324 324 324 324 324 324 324 324 323 322 322 323 324 326 326 327 327 329 329 330 331 330 330 330 329 328 329 329 328 329 329 328 328 327 328 328 328 326 325 325 324 323 323 323 323 323 322 322 323 321 319 318 317 316 317 318 320 321 322 324 325 326 326 326 326 326 326 326 327 328 329 329 328 329 329 329 329 327 326 327 328 328 329 328 328
323 322 322 322 323 322 322 322 322 322 323 323 324 324 324 324 325 326 326 327 329 330 330 330 330 329 327 328 327 327 327 328 327 326 326 329 329 326 324 324 322 321 321 321 321 320 320 320 320 320 318 317 315 313 312 312 313 314 317 319 321 322 322 323 324 324 324 324 325 326 327 327 325 324 326 327 327 327 327 328 328 328 328 328 328
321 321 321 321 321 321 320 320 322 324 324 323 322 321 321 321 322 323 324 325 326 327 328 329 329 328 327 327 328 327 326 327 327 326 327 327 327 325 323 322 321 320 319 318 318 318 318 318 318 318 317 316 315 314 312 310 309 310 311 312 314 315 316 317 318 319 319 320 320 320 321 322 320 319 320 322 322 322 322 323 323 323 323 322 323
319 319 320 320 320 320 320 320 322 323 322 322 322 320 319 320 320 321 322 323 324 325 326 326 326 325 325 326 326 326 326 326 326 326 328 326 324 323 322 321 320 319 318 317 316 316 316 316 317 318 317 316 315 314 312 310 308 309 309 309 310 310 310 311 311 312 313 313 313 313 313 314 314 315 317 318 318 317 317 317 317 317 317 316 316
319 318 319 318 318 319 320 320 320 320 320 321 321 320 318 318 319 320 320 320 321 322 322 323 323 322 322 322 322 322 323 324 324 326 327 326 323 323 322 321 321 319 318 317 315 314 313 314 316 317 316 316 315 315 313 311 308 307 308 307 307 308 308 308 308 308 309 309 309 309 309 310 310 311 311 312 313 313 313 314 314 313 313 312 312
319 318 318 318 318 318 318 319 319 319 319 319 319 319 318 317 318 318 318 318 318 318 319 319 320 319 319 318 319 319 319 319 321 323 324 323 322 322 321 320 320 319 318 316 314 313 312 312 313 314 314 313 313 312 312 310 307 308 309 307 305 306 305 305 306 306 306 307 307 307 307 307 308 308 308 308 309 309 309 310 310 310 311 310 309
319 319 318 318 317 316 316 317 317 318 319 318 318 318 318 317 317 317 315 316 317 317 316 317 317 317 317 316 315 316 316 316 317 319 321 321 320 320 320 319 317 317 317 316 314 313 311 310 310 311 311 311 310 309 310 309 309 311 311 307 304 304 305 305 305 305 305 305 306 306 306 307 307 307 308 308 308 308 309 309 309 309 309 309 309
319 319 319 318 317 316 316 316 316 317 317 317 318 318 317 316 316 315 314 314 315 316 316 316 316 317 317 316 316 315 316 316 316 317 318 319 320 319 319 317 317 317 317 317 316 313 312 310 308 308 308 309 309 308 308 307 308 311 311 307 303 301 303 303 303 304 304 305 305 306 306 307 307 307 307 307 308 308 308 308 308 309 308 309 309
319 319 319 318 318 317 316 316 316 317 316 316 316 316 316 316 316 316 315 315 315 315 316 316 316 317 317 316 316 316 316 316 315 316 315 316 317 318 317 317 318 318 317 317 316 314 312 310 308 307 307 307 308 307 307 305 305 308 310 309 304 301 303 303 301 301 300 301 302 303 304 305 306 306 307 307 307 307 307 307 307 308 308 308 308
319 319 319 318 318 318 317 317 316 317 317 317 316 316 316 316 316 316 316 315 315 315 316 316 316 316 318 317 317 317 317 316 315 315 315 314 314 314 315 316 318 318 317 317 317 314 312 309 308 308 308 308 307 307 306 304 304 307 308 308 305 303 305 305 304 303 301 299 299 299 300 301 302 303 303 305 305 306 306 306 307 307 307 307 307
319 319 318 318 318 318 318 317 317 318 318 317 317 317 317 316 316 316 316 315 315 315 315 316 316 316 316 316 317 318 316 315 314 314 314 314 314 313 314 315 316 317 317 318 316 314 311 309 308 308 308 308 308 308 307 306 306 307 307 308 306 305 307 307 306 305 304 301 300 299 298 298 298 298 299 300 300 301 302 302 303 304 304 305 306
319 318 317 317 318 318 318 318 318 318 319 319 318 318 317 317 316 316 316 315 314 314 315 315 316 315 315 314 316 317 316 315 314 313 313 313 313 313 314 314 314 315 316 316 315 312 311 310 309 309 309 309 309 309 310 310 309 308 307 308 307 307 308 308 307 306 305 303 301 299 298 298 298 298 297 298 298 298 298 298 299 299 300 300 301
319 318 317 317 318 318 318 319 318 318 319 319 319 319 318 318 318 317 317 316 315 315 315 315 314 315 315 315 314 315 315 315 315 314 313 313 313 312 313 314 314 314 314 314 313 313 312 311 311 310 310 311 310 310 310 310 310 309 308 309 308 307 307 308 308 307 306 305 303 301 299 298 298 298 298 298 299 299 298 298 298 298 298 298 298
318 318 317 317 318 318 318 319 319 319 319 320 321 320 319 319 319 319 318 317 317 317 316 315 314 315 316 315 314 314 315 315 315 314 314 314 314 314 314 315 315 315 316 316 316 316 314 313 312 311 311 312 311 310 310 310 310 310 309 309 309 308 308 308 309 307 306 305 304 302 301 300 300 300 299 299 299 300 300 299 299 299 298 298 297
319 319 318 318 318 318 319 319 319 320 320 320 321 321 321 320 320 320 319 319 319 318 317 316 315 315 316 316 316 315 315 315 315 314 315 316 315 315 315 316 316 316 317 317 316 316 315 314 313 312 312 313 312 311 310 310 310 310 310 310 310 309 309 309 309 308 306 305 305 304 303 302 302 301 301 300 300 299 299 299 299 298 298 298 298
321 320 319 319 319 319 320 320 320 320 320 321 321 321 322 322 321 321 320 320 320 320 319 319 318 317 318 318 317 316 316 316 315 314 316 316 315 315 315 315 315 316 316 316 316 316 316 315 314 313 313 313 312 312 311 311 311 311 311 310 310 310 310 310 309 309 307 306 305 305 304 303 302 302 301 301 300 299 299 299 298 298 297 297 298
321 321 320 320 321 321 321 320 320 320 321 321 322 322 322 322 322 322 322 322 322 322 321 321 319 319 320 319 319 318 318 317 317 316 316 316 315 315 315 313 313 315 315 315 316 316 316 316 315 314 314 313 313 313 312 311 311 311 311 311 311 311 310 310 309 308 308 307 307 306 305 304 303 302 302 302 301 301 301 300 300 298 297 297 297
321 321 321 321 321 321 320 320 321 321 321 321 322 323 323 324 323 323 323 323 322 322 322 322 321 321 321 321 320 320 319 318 318 318 317 316 315 315 315 312 311 313 314 315 315 315 316 316 315 315 314 314 313 313 312 310 310 311 311 311 311 311 311 310 309 308 308 308 307 306 305 304 303 303 303 303 302 302 302 302 301 300 299 298 298
321 321 321 321 321 321 321 321 322 322 322 322 323 324 324 324 324 323 323 323 322 322 322 322 322 322 322 322 321 321 321 319 319 318 317 317 316 316 315 313 312 313 314 314 315 315 315 315 315 315 314 313 313 313 312 312 311 312 312 311 311 310 310 310 309 308 308 308 307 306 305 304 303 303 303 303 303 303 302 302 301 301 301 301 300
321 321 321 320 322 322 322 323 322 322 323 323 323 323 323 323 324 324 323 324 323 322 322 323 323 323 323 323 322 323 322 320 319 318 317 317 317 318 317 315 314 314 313 313 314 315 315 316 315 315 314 314 313 313 313 313 313 312 311 311 311 310 309 309 309 308 308 308 307 306 306 305 304 303 303 304 304 304 303 303 303 303 302 302 301
322 321 320 321 322 322 323 324 323 323 324 323 322 322 322 323 324 324 324 324 323 323 323 323 323 323 323 323 323 322 322 321 319 317 316 315 315 317 318 317 315 314 314 314 315 315 315 315 315 315 315 314 313 313 313 313 312 311 311 310 310 310 309 309 309 309 308 307 307 306 306 305 304 303 303 304 304 304 303 304 304 304 303 302 301
322 322 322 324 324 323 323 323 322 322 323 323 323 322 321 321 321 323 324 324 323 322 321 321 322 323 323 323 323 322 321 320 319 317 316 315 314 315 316 315 314 314 314 314 315 315 315 315 315 315 314 314 313 313 313 312 312 311 310 310 309 309 309 309 309 308 307 307 306 306 305 304 303 304 304 303 303 304 304 304 304 303 303 302 301
322 322 323 323 323 322 321 320 322 321 321 323 324 321 320 319 318 319 321 322 322 320 319 319 320 321 321 322 322 322 320 319 318 318 317 316 316 315 315 314 313 313 312 312 312 313 313 314 315 314 314 314 313 312 312 312 311 309 309 309 308 308 308 307 307 307 307 306 305 304 304 304 304 303 303 303 303 303 303 303 303 303 302 301 300
322 322 322 322 322 321 320 321 322 320 320 323 323 320 318 317 317 317 318 321 321 319 317 318 318 318 319 320 321 321 320 319 318 319 318 317 317 316 315 314 313 312 312 310 310 310 310 311 313 313 313 312 311 312 311 309 308 307 307 307 307 307 306 306 306 305 305 304 304 304 304 304 304 303 303 303 302 302 302 303 302 302 302 301 300
321 321 321 322 323 322 321 321 321 320 320 321 320 318 317 318 319 318 319 320 319 317 316 317 318 318 318 318 318 319 319 318 318 319 318 317 317 316 315 314 313 312 312 310 309 308 308 308 309 311 312 310 310 310 309 307 306 306 306 306 305 305 305 305 304 304 304 304 304 304 304 304 304 303 303 303 302 302 302 302 302 301 301 300 299
321 321 321 323 324 323 322 321 320 320 320 319 319 319 319 320 320 319 318 318 317 316 316 316 316 316 317 317 315 315 317 318 318 318 317 316 316 316 315 314 313 311 309 308 307 306 307 307 308 310 310 308 307 307 306 305 304 304 304 303 303 303 303 303 303 304 305 304 304 303 303 304 304 303 303 302 302 302 302 302 301 301 300 300 299
322 322 321 322 323 322 321 320 318 317 316 315 316 317 317 317 317 316 316 316 315 315 315 316 316 316 317 317 315 314 316 317 316 313 312 313 314 315 315 314 313 310 308 307 306 305 307 308 308 308 307 305 305 304 303 303 302 301 300 300 300 301 302 303 303 303 303 302 302 302 302 302 302 302 302 302 301 301 301 301 301 300 300 300 299
323 322 321 321 321 320 319 318 316 315 312 312 313 312 312 313 312 312 314 315 314 314 315 316 316 316 316 315 313 314 316 315 311 308 308 311 314 315 314 312 312 310 307 306 305 304 304 305 305 304 304 304 303 303 302 301 300 299 298 298 299 300 300 301 301 302 302 301 301 301 301 301 301 301 301 300 300 300 300 300 300 300 300 300 299
321 320 319 319 318 318 317 316 315 313 310 308 308 308 308 308 307 310 313 313 312 314 314 315 315 315 315 313 311 314 315 312 309 307 308 311 314 314 313 311 311 310 308 306 304 303 302 303 303 303 303 303 302 302 300 300 299 297 296 297 298 299 299 300 301 301 301 301 301 301 301 301 301 300 300 300 299 299 300 300 300 300 300 300 299
317 317 316 317 316 315 315 313 313 312 307 303 302 303 303 302 303 308 312 311 312 313 313 314 315 314 313 311 310 311 312 309 308 308 309 311 313 313 312 310 310 310 309 307 305 304 303 303 303 303 302 302 301 301 300 300 300 299 298 298 298 299 299 300 300 300 300 300 300 300 300 300 299 299 299 299 299 299 299 299 299 299 299 300 300
Wind_Speed
7 5 5 4 4 5 8 10 9 8 9 10 10 9 10 10 9 9 8 7 6 6 5 5 6 7 7 8 8 8 8 8 8 8 10 10 8 6 7 9 11 12 12 10 9 8 8 7 7 6 4 5 4 2 4 5 6 7 8 9 8 8 7 7 6 6 6 6 7 7 6 7 7 7 7 7 8 8 8 7 7 8 9 9 9
5 5 5 6 6 6 7 6 6 7 7 8 10 10 11 10 9 9 8 7 7 6 6 6 7 7 8 9 9 9 9 9 9 8 9 10 11 8 6 8 10 10 12 12 9 8 8 8 7 7 5 5 4 2 4 4 4 5 7 7 8 8 7 6 6 5 5 5 6 6 6 7 6 6 6 6 6 6 6 7 7 8 8 9 9
4 4 4 6 6 6 6 5 4 6 6 8 9 8 9 9 8 7 6 6 5 5 7 7 7 7 8 9 9 10 9 9 8 8 10 13 12 10 7 8 10 9 11 13 11 9 8 8 7 7 6 5 4 3 2 4 2 3 4 5 6 7 6 5 5 5 5 5 5 6 6 6 6 6 6 5 5 5 6 7 8 8 8 8 8
4 5 5 5 4 4 6 5 4 6 6 7 9 8 8 6 5 4 3 4 4 5 6 6 7 7 7 8 9 10 9 8 8 7 9 12 12 12 9 8 9 8 10 12 12 11 9 7 7 6 6 6 5 3 1 2 1 0 1 2 3 5 6 4 4 5 5 6 6 6 6 5 5 5 5 5 5 5 6 6 6 6 7 7 7
5 6 5 3 1 2 4 4 4 6 7 7 8 8 8 7 4 3 3 4 5 7 7 6 7 7 6 7 7 8 8 7 7 8 7 9 10 12 11 9 10 9 10 11 10 11 9 7 7 6 5 5 5 5 4 3 2 2 2 1 1 3 5 4 4 4 5 6 6 6 6 5 5 5 5 4 5 5 5 5 5 6 6 6 6
5 5 4 2 2 3 1 2 3 4 7 7 7 8 8 7 4 2 3 5 6 6 7 9 9 6 6 6 6 7 6 7 8 9 8 7 8 10 12 11 11 9 9 10 10 9 8 8 8 7 6 6 6 5 5 4 3 4 3 1 1 1 4 4 4 4 4 4 5 5 5 5 4 4 4 4 4 4 4 4 5 5 4 3 5
4 4 3 3 3 2 1 1 2 3 6 5 5 6 6 6 4 3 4 5 6 6 7 11 12 8 7 6 5 6 6 6 7 8 8 7 8 9 11 12 13 11 9 9 10 8 7 8 8 8 8 7 7 6 5 4 3 3 3 2 2 1 2 3 3 4 4 3 4 4 4 4 4 4 4 3 4 3 3 3 4 3 3 3 4
3 4 3 3 3 2 2 2 2 3 5 4 3 4 4 4 4 6 6 5 6 8 9 12 14 10 6 5 5 4 4 4 4 4 3 3 5 6 9 11 11 11 11 11 10 9 8 8 7 7 6 7 8 7 5 4 3 3 3 2 1 1 1 1 1 3 3 3 3 3 3 3 3 3 3 3 3 3 3 3 3 2 2 3 4
3 3 2 2 2 2 2 3 3 3 4 4 3 3 2 2 4 8 8 5 5 9 11 12 14 10 4 5 5 2 2 2 1 1 2 1 2 3 9 10 9 8 9 12 12 11 10 8 6 6 5 4 7 7 5 5 3 3 3 2 1 1 1 0 1 1 1 2 3 2 2 1 2 2 1 2 2 2 2 2 3 2 2 3 3
4 3 2 2 2 1 3 4 4 4 5 4 3 3 3 3 5 8 7 5 5 8 10 11 11 10 7 4 3 2 1 1 1 3 3 4 7 7 7 8 10 9 8 11 11 10 10 8 6 5 5 5 6 7 7 7 6 4 4 3 1 1 3 2 1 2 2 1 1 1 2 2 3 3 1 0 2 2 2 1 2 2 2 3 2
4 3 2 2 3 1 2 4 3 3 4 4 3 3 4 4 5 6 7 6 7 9 9 9 8 8 5 1 0 1 0 1 2 5 5 5 7 6 4 6 9 8 8 10 10 9 8 9 8 6 6 6 6 6 6 7 6 6 7 6 4 4 2 1 3 4 4 3 2 1 0 1 3 3 2 1 1 1 1 1 1 1 2 3 4
4 3 2 1 3 2 2 3 2 3 3 3 4 4 4 4 4 6 7 7 8 10 8 7 6 4 1 1 1 2 2 3 6 7 5 4 3 3 4 6 7 9 10 9 10 9 8 9 8 8 8 7 6 6 5 5 5 5 6 7 7 7 6 5 5 6 5 4 3 2 2 1 1 2 3 2 2 2 1 0 0 0 1 2 4
4 3 3 1 3 4 3 3 3 4 3 3 3 3 4 4 4 6 7 8 10 9 5 5 4 2 2 0 1 2 3 6 9 6 3 4 4 5 6 5 4 7 9 8 9 9 9 9 8 7 7 7 5 5 5 4 4 4 4 5 5 6 6 6 6 8 7 6 4 3 3 4 3 3 3 3 2 3 3 2 1 1 1 2 3
5 4 3 2 3 3 4 3 3 4 4 4 4 4 5 4 5 6 8 10 9 5 3 5 3 2 2 1 0 0 2 6 7 5 6 7 5 5 5 5 4 5 7 8 9 8 9 9 7 7 6 6 5 4 5 4 3 5 5 4 5 5 5 6 7 9 9 8 7 5 4 4 4 5 4 4 4 4 4 5 4 3 2 2 2
5 4 4 3 3 2 2 3 2 2 4 5 5 6 6 5 6 6 8 8 7 5 4 5 2 4 2 1 1 1 2 5 4 3 6 7 5 5 4 4 4 4 6 8 7 6 7 6 5 6 6 6 5 4 3 4 4 5 4 5 7 6 7 7 7 8 9 10 10 9 8 6 4 5 4 4 5 5 5 5 5 4 3 3 3
5 4 4 4 3 3 2 2 1 0 1 2 3 4 4 5 6 6 6 5 4 4 4 3 2 3 2 0 0 1 1 3 2 1 4 5 5 5 3 3 4 3 4 5 5 4 4 3 2 2 1 1 3 1 1 1 2 2 1 5 8 8 8 9 9 8 8 9 10 11 11 9 7 5 5 5 5 5 6 6 6 5 5 4 4
5 5 5 5 4 4 3 3 2 1 1 0 1 1 1 2 4 4 5 3 3 3 3 3 2 2 2 2 1 1 1 2 3 1 3 4 4 4 3 2 3 4 5 6 6 5 4 3 1 3 5 8 10 8 6 6 3 2 0 4 6 6 7 8 9 9 9 10 9 10 11 11 10 8 7 6 5 5 5 6 6 6 6 6 6
6 5 6 5 5 5 5 5 4 4 3 2 2 1 1 0 1 2 2 1 0 2 2 2 2 3 2 2 2 1 2 3 2 1 3 4 4 4 4 5 6 8 8 8 8 7 6 5 5 7 8 10 12 12 10 8 5 4 2 2 3 4 5 6 7 8 9 9 9 10 10 10 10 10 11 9 7 7 7 7 7 7 7 7 7
6 5 5 5 5 6 6 6 5 5 5 5 5 4 3 3 3 2 3 3 2 2 2 1 2 2 2 3 3 2 2 3 1 1 3 3 3 5 6 8 9 9 10 11 11 10 9 9 8 9 11 11 12 12 11 8 6 5 4 2 2 1 1 3 5 6 7 7 8 9 9 9 9 10 12 11 9 9 9 9 8 8 8 8 8
6 5 5 5 5 6 6 6 5 5 5 6 7 7 6 6 5 5 5 5 4 4 4 3 2 2 3 3 2 1 4 4 3 3 2 3 4 6 8 10 10 10 9 10 11 10 11 12 11 10 11 11 11 10 9 8 7 6 6 5 4 3 2 1 2 3 4 4 5 5 6 6 9 11 12 12 12 12 11 10 10 10 10 10 10
6 5 5 5 5 5 6 6 5 5 5 5 7 8 8 9 9 8 7 6 6 6 5 4 4 2 1 3 4 5 5 3 4 4 2 2 4 5 8 9 10 11 11 10 10 10 10 12 12 12 12 13 12 10 9 8 7 7 6 6 5 5 4 4 4 4 3 3 4 5 5 4 3 8 11 12 12 11 11 11 10 11 12 13 13
7 6 5 5 5 5 5 6 6 6 6 5 6 8 9 10 11 10 10 8 7 7 6 4 4 3 1 1 1 1 1 1 2 1 2 1 3 5 7 9 10 10 11 12 12 11 10 10 12 13 13 14 14 13 13 12 11 10 8 7 7 7 8 9 9 9 8 6 6 8 8 8 6 3 4 6 7 8 9 9 9 10 11 13 14
7 6 6 6 6 6 6 7 7 7 7 6 6 7 8 9 10 10 11 10 8 8 7 6 5 5 4 4 3 3 3 1 3 6 3 1 2 5 8 10 12 11 11 11 12 12 11 11 12 12 13 13 13 14 15 14 13 12 10 9 8 8 8 9 9 9 9 8 8 8 9 10 9 9 7 5 4 6 7 7 8 9 10 11 13
8 7 7 7 6 7 7 8 8 7 7 7 7 8 7 8 9 10 11 11 10 10 10 10 8 7 7 5 3 3 5 4 4 6 7 7 4 5 9 11 11 12 11 11 12 12 12 12 12 12 12 13 12 13 13 13 12 10 9 9 9 9 9 9 8 8 8 8 8 8 7 7 6 6 5 5 5 6 7 8 8 9 9 9 9
9 8 7 7 7 7 7 8 8 8 8 8 8 8 8 9 9 10 11 11 11 11 11 11 10 9 8 6 5 6 7 7 6 4 4 8 7 5 10 11 10 10 9 10 11 11 11 11 11 12 12 12 12 11 11 11 11 9 8 8 9 9 9 9 9 9 8 8 8 8 7 7 6 5 4 4 4 6 7 7 8 9 8 8 8
10 9 8 8 8 8 8 8 8 8 8 8 8 8 8 9 10 11 11 11 10 10 10 10 10 10 8 8 8 9 9 8 8 4 1 4 6 7 8 9 8 9 9 9 10 10 11 10 10 11 11 11 10 10 9 9 8 8 8 8 8 8 8 9 9 8 8 8 8 8 8 8 7 7 7 7 7 7 7 8 8 9 8 8 7
10 10 9 9 9 9 9 9 8 8 8 8 8 8 9 9 10 10 10 10 10 10 10 11 10 10 9 9 9 9 9 8 7 6 5 6 8 8 7 6 6 7 7 8 9 9 9 9 10 10 9 10 9 9 9 7 8 9 8 7 8 7 8 8 8 8 8 8 8 8 8 8 7 8 8 8 8 8 8 8 9 9 9 9 8
11 10 10 9 9 9 9 9 8 8 8 8 8 8 9 9 9 10 10 9 10 10 10 10 10 10 9 9 9 9 9 9 8 8 7 6 7 7 5 4 4 5 5 5 7 8 8 8 9 9 8 9 8 7 7 6 7 9 6 5 6 6 6 7 7 7 8 7 8 8 8 8 7 7 7 7 7 7 7 7 8 8 9 9 8
11 11 10 10 9 9 9 8 8 8 8 8 8 8 9 9 9 10 9 9 9 9 9 9 9 9 9 9 9 9 9 9 9 8 6 5 5 4 2 2 3 1 3 4 4 5 6 6 8 8 7 7 7 6 6 5 7 8 3 3 7 7 6 7 8 7 7 7 7 8 8 8 8 8 8 8 8 8 8 8 9 9 9 9 9
12 11 11 10 10 9 9 8 8 8 8 8 9 8 9 9 9 9 9 8 9 9 9 9 9 9 9 10 10 10 10 9 9 8 7 6 4 3 3 4 4 5 2 5 5 5 5 5 7 7 6 6 6 6 5 5 6 7 4 2 6 8 7 8 10 10 10 9 8 8 8 8 9 9 9 10 10 10 11 11 11 11 12 12 11
14 13 12 11 10 9 9 8 8 8 8 8 8 8 8 9 9 8 8 8 8 8 8 8 8 8 9 9 9 9 8 8 9 8 7 6 5 5 4 4 5 7 5 6 6 4 5 5 5 6 5 5 5 5 5 4 5 6 4 1 5 8 6 7 11 12 12 12 10 9 9 9 10 11 11 12 12 13 13 13 14 14 15 15 15
14 14 13 12 11 10 9 9 8 8 7 7 7 7 7 7 8 8 7 7 8 7 7 7 7 7 8 8 9 8 7 7 8 7 7 7 7 6 5 6 6 4 5 7 7 6 6 5 4 5 5 4 4 4 5 4 4 5 3 1 5 8 4 4 9 11 12 13 11 10 10 10 10 11 12 13 13 14 14 15 16 16 17 17 18
13 14 13 13 12 11 11 10 9 8 8 8 7 7 7 7 7 7 6 6 7 7 6 6 6 6 7 7 8 7 7 6 5 5 6 5 5 5 5 5 6 4 5 7 7 7 5 3 4 4 3 1 2 4 3 2 2 2 1 1 3 5 3 4 6 7 10 12 12 11 11 11 11 11 12 13 14 14 15 15 16 16 17 18 18
13 13 13 13 12 12 11 10 10 9 8 8 7 7 7 7 6 6 5 5 6 6 5 5 6 5 5 6 6 6 6 5 5 5 5 3 3 5 5 5 6 5 4 5 6 6 5 3 2 3 3 1 0 2 2 2 2 2 1 0 3 2 2 4 5 5 8 12 13 12 10 11 11 12 13 14 15 15 16 16 16 17 17 18 18
13 13 13 13 13 12 12 11 11 10 9 8 7 7 7 7 6 6 5 5 5 5 4 4 5 5 4 4 4 4 4 4 4 5 4 4 4 5 5 5 5 5 5 4 3 4 4 3 1 3 4 2 2 1 2 1 1 3 2 2 3 2 2 4 5 6 9 12 15 13 11 12 12 12 13 14 14 15 15 16 16 17 18 18 19
13 13 13 13 13 13 12 12 12 11 10 9 8 8 7 7 7 7 6 6 5 4 4 4 4 4 4 3 3 3 3 3 2 2 2 2 3 4 3 3 4 5 5 3 2 2 1 1 1 1 2 1 1 1 2 2 1 2 1 2 3 3 3 5 7 7 10 13 15 14 14 15 16 15 16 16 15 15 15 14 15 16 17 18 19
12 12 13 13 13 13 12 12 12 11 11 10 9 9 8 7 7 7 7 6 6 5 5 5 4 4 4 3 4 4 3 2 2 1 2 1 1 2 2 2 3 3 2 3 3 2 1 1 1 1 3 3 2 3 5 5 6 6 4 4 6 6 4 6 8 9 11 13 14 14 16 17 17 19 21 19 18 18 16 14 13 14 16 17 18
12 12 13 13 13 13 12 11 12 12 11 11 10 10 9 9 8 8 7 7 7 6 6 6 6 6 5 5 4 4 4 4 3 2 3 2 1 2 2 3 4 4 1 2 2 2 3 3 2 3 4 5 5 6 5 4 7 7 4 4 8 8 7 7 9 10 10 10 10 13 15 15 16 20 21 19 19 20 18 15 15 16 17 16 16
13 13 13 13 12 12 11 11 11 11 11 10 10 10 9 10 9 9 8 9 8 8 8 8 8 8 7 7 6 6 6 5 4 4 4 3 2 1 1 1 3 3 1 3 3 2 3 4 4 4 5 4 4 5 5 3 6 9 5 4 8 10 9 9 10 12 10 8 9 12 14 15 18 20 20 19 20 20 17 16 18 20 19 16 14
15 14 14 13 13 12 12 13 12 11 11 10 10 10 9 9 10 10 11 11 10 11 11 11 10 10 9 8 8 7 7 6 7 6 5 5 4 2 2 4 3 2 3 5 4 4 6 6 6 6 7 6 5 6 6 5 6 8 8 8 10 11 11 10 11 12 12 9 9 12 14 16 18 20 19 19 21 20 17 17 20 19 17 15 14
15 15 14 14 14 13 14 14 13 12 11 10 10 10 10 9 10 11 12 12 12 13 13 13 12 12 11 10 9 9 9 10 10 9 9 8 7 5 4 4 5 5 6 6 6 7 8 8 8 8 8 8 8 5 4 5 5 7 8 9 12 13 12 12 12 12 12 11 11 13 14 14 17 19 18 18 19 18 17 18 19 16 15 16 16
11 13 13 14 14 14 14 13 12 11 10 11 11 12 13 11 11 11 12 13 14 14 14 15 14 13 11 10 9 10 11 12 12 11 12 12 10 8 6 4 5 6 6 7 8 8 9 9 9 9 9 10 10 6 4 6 6 6 7 10 13 14 13 12 12 12 12 10 11 14 15 16 17 18 17 16 16 16 16 16 16 15 16 18 19
11 11 11 11 13 13 12 12 14 13 10 10 13 15 16 16 14 13 13 13 14 15 15 14 12 12 11 9 9 10 11 11 11 10 11 13 12 11 10 7 7 7 6 7 7 8 9 10 10 10 10 11 10 7 6 8 7 5 7 10 12 13 12 11 12 13 12 10 12 17 19 18 17 17 17 16 15 15 15 15 17 19 20 21 23
13 11 11 11 13 14 12 14 17 16 12 11 12 14 15 16 17 16 15 12 11 12 13 11 7 7 8 7 7 6 7 7 8 8 9 11 12 13 13 12 13 13 11 9 8 7 7 8 8 9 9 9 7 5 4 4 5 4 7 9 10 11 11 12 13 14 13 14 16 20 21 18 15 16 17 16 15 15 16 18 20 21 22 23 24
11 12 13 12 13 12 11 13 11 8 8 10 11 12 13 13 14 16 15 11 7 8 9 7 6 7 8 7 7 7 5 4 5 6 7 7 8 10 13 15 17 17 17 16 14 12 10 8 7 8 7 5 5 4 1 2 4 6 8 10 10 11 11 12 14 17 18 18 17 18 19 17 14 15 17 16 16 17 17 18 20 21 23 24 25
12 14 13 12 11 10 11 12 7 3 5 9 10 9 10 9 9 11 12 9 7 7 8 9 9 8 6 5 6 7 6 3 4 5 5 5 5 5 7 11 15 17 18 18 16 16 15 12 9 8 4 1 2 2 3 6 7 6 7 9 10 11 13 15 18 20 20 18 15 16 17 16 14 15 17 17 17 17 17 18 20 22 23 24 24
12 12 11 10 10 10 10 11 10 8 9 9 9 9 8 8 8 8 8 7 7 8 8 7 6 5 5 3 3 5 5 4 5 5 4 4 5 4 3 6 8 10 12 14 13 11 9 7 7 4 1 1 3 4 6 7 6 5 7 10 12 14 16 17 18 18 17 15 15 16 17 16 15 17 18 17 18 19 18 18 20 22 24 24 23
9 9 10 10 10 9 8 10 12 13 12 10 10 9 8 8 8 7 6 6 6 7 6 5 5 4 5 4 2 3 4 4 4 4 3 3 5 5 5 4 5 6 8 12 13 11 9 8 7 6 6 7 8 9 9 9 8 9 10 11 13 14 16 17 16 16 16 16 15 16 18 18 17 17 19 18 19 20 20 19 21 22 23 22 21
8 8 10 10 10 9 9 10 10 12 13 13 11 10 9 9 9 8 7 7 6 5 5 5 4 4 5 4 2 3 4 3 3 3 3 2 4 6 6 5 5 5 7 11 12 12 12 11 9 9 9 10 11 11 12 12 12 13 12 11 12 13 14 15 16 16 17 17 16 16 18 18 17 18 19 19 19 20 20 20 20 19 19 19 20
7 7 8 9 9 9 11 11 10 11 12 12 11 11 11 10 11 10 8 7 6 5 5 5 3 3 6 6 4 4 3 3 3 3 2 3 3 5 6 6 7 7 6 8 10 11 11 10 10 11 11 12 12 13 13 13 13 13 12 11 11 13 13 14 15 16 16 16 14 12 13 16 17 17 19 19 19 19 18 17 17 18 19 19 20
7 8 9 9 10 11 11 11 10 10 11 12 12 11 11 12 12 11 9 7 7 5 5 6 4 3 5 7 7 6 4 3 2 2 4 5 3 4 5 6 9 10 8 6 6 6 6 7 8 10 12 12 13 13 13 12 12 11 10 9 10 11 12 13 15 16 15 14 13 12 13 17 18 18 19 18 17 16 17 17 17 18 19 19 19
Wind_Direction
168 202 211 216 216 203 207 199 194 204 205 212 219 208 214 222 214 213 212 208 204 201 209 200 198 209 202 193 196 204 207 211 211 183 159 163 175 168 158 164 166 166 164 163 165 162 162 162 154 147 141 151 164 117 82 79 77 79 74 70 65 62 57 59 71 74 68 70 78 79 81 79 75 84 87 81 77 70 66 65 67 71 76 72 65
170 210 212 221 231 218 232 237 203 199 209 217 219 215 217 220 217 213 212 212 204 200 204 207 205 203 205 197 193 204 204 208 211 194 176 171 172 173 166 163 167 173 170 165 164 167 165 163 160 150 145 152 165 153 91 67 72 81 72 69 65 59 53 54 65 74 77 70 68 69 73 77 75 81 87 88 85 77 68 63 70 73 73 69 65
180 212 217 230 228 210 233 253 222 201 211 236 241 235 231 227 223 225 222 219 216 208 204 212 216 205 206 201 193 200 203 204 210 204 183 169 170 176 171 166 165 171 175 168 162 170 169 163 165 154 150 151 154 163 68 40 73 84 66 69 62 56 53 54 62 65 70 68 64 69 70 70 70 74 84 89 86 82 69 62 70 74 69 66 66
224 213 206 226 218 191 220 233 220 207 212 246 264 264 265 258 245 258 265 262 266 259 241 226 228 221 205 201 198 197 198 201 209 210 177 160 168 170 163 166 163 162 173 174 171 169 164 163 169 159 156 155 149 165 79 35 91 74 79 81 55 53 54 54 68 66 63 63 62 69 73 71 67 66 78 88 85 84 76 71 72 74 72 67 67
238 226 214 215 241 234 220 222 220 213 217 238 252 257 288 310 321 329 292 283 276 269 277 260 241 241 219 204 199 196 195 195 208 220 191 165 172 167 160 164 162 160 163 172 176 168 164 161 157 157 165 165 160 166 167 168 203 236 221 163 52 48 53 53 66 72 66 63 66 69 70 71 67 63 70 82 86 86 82 80 75 76 79 71 69
230 234 246 203 224 265 238 223 231 212 221 233 234 239 281 307 315 300 259 275 280 270 278 269 255 242 230 216 197 199 197 192 204 216 207 188 182 172 165 165 160 157 154 158 165 164 170 171 162 166 170 169 173 173 172 178 194 218 230 217 155 52 58 59 53 69 73 66 70 69 68 67 62 58 62 71 78 87 92 84 80 83 84 88 89
204 201 228 202 195 235 191 197 236 225 227 232 227 234 273 292 280 284 273 270 273 262 257 266 265 238 221 224 203 199 200 201 202 206 214 197 182 180 177 174 162 153 146 140 152 156 158 173 182 188 184 182 182 178 181 186 194 209 220 224 197 157 83 73 51 62 70 73 82 76 72 68 60 55 54 62 63 80 107 101 97 97 82 109 122
197 189 199 199 165 152 184 189 208 231 232 230 217 219 257 292 283 285 283 274 270 266 255 258 262 247 217 222 221 200 194 212 208 211 231 192 186 181 164 170 164 151 147 141 144 152 151 157 167 178 185 190 186 177 178 188 208 219 206 214 211 168 112 111 86 65 61 73 90 86 77 67 60 58 59 65 61 74 105 119 122 127 97 102 131
178 182 187 189 140 123 177 188 196 206 220 227 207 207 227 260 269 266 267 278 286 276 262 253 260 265 232 206 223 218 194 216 247 337 348 359 334 88 115 137 143 126 141 153 148 145 148 151 149 151 153 163 180 177 174 180 193 217 204 195 172 118 24 9 171 16 31 75 84 77 64 51 35 35 68 78 59 62 85 116 131 152 131 109 125
148 166 184 171 155 157 163 174 205 206 207 224 202 207 219 215 245 257 265 284 284 269 260 254 258 260 241 205 206 222 236 269 347 31 26 4 9 36 76 114 132 123 133 155 154 142 142 148 147 147 143 139 159 170 170 174 180 198 206 200 194 268 355 357 225 354 3 6 77 85 45 29 22 21 45 99 47 51 54 80 119 148 151 138 148
138 151 176 179 171 171 129 144 203 216 202 214 207 220 224 216 236 252 257 259 257 256 256 254 252 250 241 187 193 223 325 336 58 55 34 11 21 28 46 97 122 131 135 146 154 154 155 160 160 165 170 155 150 163 170 175 185 201 210 210 205 220 271 249 243 305 337 328 295 216 203 18 17 19 14 319 330 39 48 57 91 127 162 170 177
129 132 136 173 147 122 104 130 190 212 208 209 197 223 230 217 231 244 245 244 246 246 245 252 258 273 284 109 325 343 1 10 52 65 39 11 30 52 72 93 110 123 128 141 153 158 166 168 171 181 181 168 159 167 175 189 201 209 216 218 213 214 221 215 231 267 287 299 309 281 251 272 328 346 354 333 269 242 238 125 121 159 188 189 193
105 102 105 110 109 116 123 139 192 194 212 225 189 222 244 239 240 242 246 251 252 240 223 236 242 299 323 225 316 349 15 31 52 80 94 60 72 86 86 91 107 120 128 153 163 167 180 182 192 203 190 181 179 169 176 199 214 226 236 239 239 232 232 231 232 245 257 267 277 285 274 271 280 283 303 318 295 252 239 235 241 245 238 214 204
86 84 86 85 95 113 130 146 181 179 191 200 186 209 222 234 239 237 243 250 254 235 208 234 200 116 280 228 138 336 76 62 54 76 102 90 89 97 95 102 115 127 139 159 168 178 194 197 209 217 202 198 207 198 191 187 198 226 235 250 259 251 249 249 243 247 256 258 253 254 270 272 272 275 280 292 297 279 253 238 236 243 254 243 222
82 78 72 66 68 80 110 140 166 182 192 180 180 204 201 205 217 233 249 253 249 219 210 241 160 111 213 214 130 216 101 82 57 50 86 96 107 110 107 119 124 135 145 151 156 169 184 192 204 208 206 202 200 210 206 184 199 217 222 257 262 255 254 249 246 252 255 256 253 253 262 266 264 267 273 272 271 270 258 239 234 239 245 252 245
75 69 65 58 47 51 61 74 98 193 238 178 176 206 197 198 207 222 245 260 265 229 199 233 201 135 168 156 57 232 91 99 122 45 59 85 109 115 112 125 115 97 106 116 118 129 142 154 195 211 221 69 86 69 15 81 224 228 243 261 259 260 258 246 241 248 255 258 252 248 251 256 260 261 259 259 259 261 256 243 242 245 240 243 249
77 65 62 58 47 44 47 55 57 47 9 308 192 216 201 201 211 220 226 238 296 270 212 211 218 175 161 126 161 236 42 122 153 124 48 78 94 98 102 118 99 69 74 86 88 78 76 88 66 48 50 50 59 72 79 79 94 104 186 247 246 262 266 252 242 242 251 258 257 252 248 249 257 263 258 254 260 270 267 252 247 244 241 239 239
84 73 66 60 56 48 41 48 46 42 46 43 48 30 352 302 260 270 239 174 286 265 217 179 190 205 186 117 99 69 81 127 166 144 97 88 69 75 83 82 76 69 71 74 73 72 71 74 67 66 73 70 76 100 118 118 131 149 175 239 257 269 266 264 256 248 250 256 259 260 255 250 253 258 259 257 264 274 272 268 259 249 250 251 250
90 82 77 65 62 60 49 46 42 42 44 41 43 39 33 36 28 7 14 32 357 339 40 38 239 190 136 97 83 70 133 157 178 171 133 103 84 85 68 66 75 73 70 70 68 67 70 78 82 80 83 84 86 103 118 123 130 131 118 98 54 26 273 266 261 259 261 260 258 259 260 259 252 253 258 254 257 263 265 273 274 266 266 265 267
98 86 81 75 71 67 57 50 44 43 47 43 38 36 42 42 39 37 32 35 20 16 50 35 354 101 107 114 118 191 212 189 170 178 162 129 125 104 78 73 75 75 73 73 74 72 68 77 84 76 76 78 77 82 87 94 106 102 90 82 73 70 62 337 272 268 278 288 293 290 286 276 255 247 248 246 245 247 255 269 275 278 283 280 274
98 88 81 79 82 76 66 59 51 44 46 48 40 38 46 45 43 41 33 38 34 28 50 53 53 87 128 144 169 209 218 204 190 203 245 134 131 118 107 99 85 82 88 88 90 89 77 78 83 77 74 72 71 78 81 86 94 92 81 69 64 61 47 34 37 38 18 5 22 23 13 3 288 252 248 253 253 248 250 258 264 270 275 278 280
97 90 82 79 82 76 71 67 62 55 54 61 58 51 52 49 47 44 39 40 38 39 50 51 62 69 9 76 175 202 168 219 195 155 294 318 113 126 122 110 96 89 94 97 97 95 86 81 85 85 85 81 78 80 82 83 81 77 73 65 61 59 52 52 54 54 51 49 60 57 48 49 38 358 286 275 274 269 266 270 274 275 273 273 277
102 92 87 88 84 76 73 72 73 71 67 71 70 64 60 54 50 48 46 46 40 44 53 45 49 61 47 28 11 41 73 27 74 112 152 218 114 129 125 113 105 97 97 100 99 99 97 91 88 87 88 87 83 78 75 75 74 70 67 62 58 55 52 53 55 57 55 54 58 57 58 61 49 31 21 6 337 321 320 319 313 306 300 293 284
109 101 95 96 92 85 79 76 76 74 73 72 70 70 71 64 59 55 53 53 49 48 52 48 43 52 58 47 31 69 78 58 80 114 153 173 171 139 124 117 109 103 103 103 98 96 96 94 91 89 88 87 85 81 77 74 71 67 62 58 51 46 45 44 42 41 42 42 41 42 47 50 37 18 10 11 1 345 340 339 335 333 332 326 313
113 109 105 100 95 90 84 82 80 75 75 74 70 71 75 74 68 63 61 59 57 55 54 52 46 47 57 57 51 62 65 72 90 102 168 169 162 127 110 107 104 105 109 108 101 93 87 85 85 84 84 86 86 85 83 79 75 70 63 60 54 47 44 41 38 35 32 28 24 22 20 16 10 3 348 336 329 323 319 313 314 317 321 327 327
121 116 111 106 99 94 90 88 87 83 81 77 71 67 72 77 71 66 66 62 61 62 59 57 53 49 53 58 56 55 54 63 79 75 39 111 114 107 104 107 117 134 141 129 110 94 86 81 80 83 82 81 86 89 88 83 75 69 63 59 56 51 44 40 35 31 27 23 17 12 8 5 0 355 346 339 333 326 319 309 303 305 307 311 314
127 122 117 112 103 99 96 92 92 91 87 85 82 74 72 77 73 68 69 66 64 65 62 60 58 54 52 57 62 58 51 53 63 69 66 76 91 101 112 127 134 144 145 120 99 93 95 90 81 83 88 88 88 90 93 85 65 62 60 49 46 45 40 38 31 25 21 17 13 9 4 1 357 352 345 341 339 333 328 321 314 314 313 311 312
130 127 123 118 110 105 101 97 97 96 93 92 90 86 81 81 79 74 72 70 68 67 65 62 58 56 52 55 64 62 54 51 54 61 71 85 104 117 134 143 122 121 124 105 96 98 99 96 91 85 86 93 93 89 92 85 68 71 66 35 34 38 33 30 25 20 16 10 5 1 358 355 350 347 342 335 334 329 325 322 317 316 315 312 309
136 134 130 124 117 113 108 105 103 100 100 98 94 93 90 86 84 81 77 76 73 70 68 66 62 59 55 54 61 63 57 55 59 60 58 64 93 114 94 43 41 91 134 118 95 92 85 79 89 94 90 93 97 95 94 90 90 94 87 15 19 23 23 21 14 9 4 358 355 348 343 342 337 334 331 327 323 319 315 313 311 309 308 307 305
143 140 137 131 125 122 117 113 111 107 104 102 100 98 94 91 89 85 82 80 79 76 72 70 68 63 61 62 63 63 60 59 60 62 61 55 72 86 48 40 22 354 52 119 107 89 91 76 75 89 97 98 98 94 86 85 98 101 96 32 14 15 24 24 14 11 4 353 345 337 330 325 321 318 316 314 312 310 309 307 305 305 304 305 305
149 145 143 140 136 133 128 123 119 114 110 107 105 103 100 99 96 91 87 86 84 83 78 76 73 70 67 65 65 63 62 66 63 60 61 53 60 81 65 62 55 11 25 110 119 91 94 94 82 84 91 97 100 103 97 80 77 84 96 103 10 8 19 20 8 3 2 357 349 339 330 320 314 310 306 305 303 301 300 299 298 298 298 298 299
154 150 149 149 148 145 140 137 132 126 122 116 112 110 107 103 103 101 98 96 93 87 84 82 77 75 73 69 66 60 55 65 68 62 63 53 49 68 69 72 81 43 35 84 106 101 96 103 111 104 98 103 102 102 106 86 59 66 98 134 358 359 352 346 349 348 350 353 350 340 333 326 318 314 309 307 305 302 300 297 295 293 292 292 291
159 157 155 156 156 154 150 147 143 139 135 129 124 120 116 110 109 110 108 106 102 95 91 88 80 75 76 76 72 62 58 61 58 59 71 64 58 70 72 79 85 66 58 85 105 111 108 114 126 115 103 129 110 85 78 71 39 33 106 112 356 357 330 297 318 330 337 344 348 344 336 330 326 323 321 318 315 312 308 304 301 297 294 292 290
167 165 162 160 161 160 157 155 152 149 146 143 139 134 129 124 119 117 114 112 108 105 104 97 93 87 77 80 75 62 62 53 32 45 56 29 48 73 62 68 82 75 76 96 109 118 123 127 140 130 103 29 45 102 92 66 28 334 275 15 344 358 1 323 306 306 321 333 341 342 337 335 332 326 325 323 319 316 313 308 305 301 298 296 293
174 173 167 165 166 165 164 162 160 158 154 152 151 147 144 142 138 134 130 127 125 125 129 126 120 111 100 96 89 73 74 62 35 49 54 16 30 65 57 55 70 62 55 71 94 112 122 121 197 176 119 44 340 87 132 128 30 335 323 342 329 321 353 349 326 298 306 321 331 338 341 339 334 327 325 325 320 316 312 307 303 300 298 297 294
180 177 171 171 172 169 170 168 166 165 163 161 162 161 159 159 156 154 154 152 152 155 156 152 144 140 141 135 123 115 103 93 68 67 87 56 47 82 93 80 82 68 44 23 14 30 109 125 269 240 96 55 285 352 333 288 249 274 293 339 333 317 315 339 333 304 296 311 323 333 339 340 337 334 332 330 326 322 314 305 300 298 296 295 294
184 179 176 178 177 175 176 176 174 174 172 170 170 169 168 171 172 169 170 172 172 177 177 172 173 170 171 173 158 153 149 139 145 117 105 97 56 99 110 69 96 99 41 346 348 345 288 246 243 312 318 293 298 339 329 331 338 329 332 346 346 342 320 322 330 314 303 311 320 327 334 337 336 332 331 331 329 327 320 308 302 302 300 296 293
185 183 184 183 183 183 184 186 186 183 182 182 180 179 178 179 181 179 180 184 186 190 191 188 190 188 187 191 184 178 177 169 166 147 125 120 83 83 55 38 79 97 52 311 309 300 289 280 249 258 287 291 310 320 312 337 334 314 313 342 339 340 333 323 325 319 305 300 309 317 324 327 324 320 322 325 326 323 318 311 309 311 307 297 291
190 192 193 191 193 193 193 200 201 193 191 192 188 187 187 185 187 191 196 198 200 205 206 205 202 197 197 198 196 196 195 187 180 173 162 162 146 99 70 71 93 90 317 279 280 271 272 281 271 266 278 268 261 284 298 315 296 284 295 349 334 327 326 321 319 319 307 288 294 312 319 321 320 316 314 316 317 314 307 305 309 311 309 300 294
200 200 199 200 203 203 202 207 210 205 200 197 195 195 200 202 199 202 208 209 213 215 215 215 212 205 203 206 204 203 205 201 192 184 177 178 183 195 216 227 239 255 259 259 263 257 258 270 271 266 278 275 240 233 255 269 279 305 341 351 326 314 316 315 314 318 314 295 293 310 317 320 322 319 313 309 309 304 296 296 303 304 301 299 300
208 207 209 210 210 211 213 210 211 209 200 198 203 203 210 218 215 216 220 220 223 225 219 216 214 208 205 205 207 209 206 203 202 202 204 206 205 210 215 226 236 239 243 249 254 259 263 265 264 262 270 276 269 261 284 299 314 342 348 328 310 307 310 310 308 313 317 305 295 302 307 312 314 311 304 300 300 299 295 296 299 293 286 289 297
209 210 221 220 214 217 219 213 213 211 198 200 210 210 212 218 221 229 233 228 229 234 230 221 213 206 202 197 203 213 212 215 222 223 223 226 218 206 207 215 217 224 244 255 256 265 274 272 273 278 279 277 282 294 310 308 318 330 318 305 303 305 307 306 304 311 317 309 299 299 301 305 308 304 299 296 295 295 295 292 288 282 283 288 294
212 209 223 225 218 223 228 227 230 228 217 213 214 215 219 222 225 233 239 237 234 237 244 242 223 205 199 192 195 211 218 226 236 235 231 234 228 215 215 216 211 215 232 252 259 265 274 275 277 287 291 286 290 300 293 291 300 308 303 298 298 301 305 306 306 310 314 316 308 301 300 302 303 299 296 295 291 288 286 281 276 276 280 285 289
218 217 228 233 228 229 236 236 230 223 218 218 223 227 230 232 233 234 241 250 244 238 251 267 258 218 201 185 179 193 206 211 220 228 231 235 234 229 226 220 218 221 225 239 256 267 284 293 289 290 297 298 303 318 326 327 335 323 304 298 297 301 304 303 302 302 306 312 307 299 297 300 301 297 295 294 292 289 285 280 278 277 277 280 286
228 230 232 236 231 230 240 244 236 220 211 220 234 239 234 234 236 231 235 253 263 244 237 232 225 219 202 182 171 175 189 196 200 212 222 228 235 239 237 231 230 231 231 235 243 251 267 291 298 293 299 313 327 340 2 331 325 313 300 297 299 302 301 298 298 297 299 301 296 290 292 296 298 297 295 295 295 293 289 285 283 282 280 283 289
232 233 234 236 231 229 238 248 257 272 243 233 233 227 218 219 222 214 219 233 242 231 212 193 197 204 190 173 166 167 175 186 188 194 202 209 220 238 251 246 240 240 241 242 245 251 258 265 273 284 296 327 349 334 284 284 300 306 296 296 301 301 298 294 292 291 291 288 283 282 285 290 295 296 295 296 297 295 292 288 287 288 288 289 293
223 225 230 232 228 226 231 236 234 228 229 223 206 194 193 196 196 194 204 217 214 206 197 184 181 176 162 156 150 146 146 153 174 187 193 205 213 214 231 240 235 236 237 233 232 238 242 238 239 246 230 234 270 280 277 283 293 293 289 293 297 297 293 289 287 285 285 285 283 283 284 288 294 295 293 297 299 297 294 291 290 291 292 292 293
221 220 222 221 221 217 213 217 216 210 207 197 181 179 182 181 185 191 208 221 208 186 174 168 164 152 137 135 141 131 129 155 192 213 227 233 229 221 212 204 198 202 216 217 214 215 213 208 211 219 235 262 276 277 277 280 281 285 292 295 295 294 290 288 289 288 289 292 292 290 289 291 294 294 295 298 299 298 296 293 291 290 289 289 290
215 213 214 215 214 200 187 191 190 185 185 184 178 180 183 182 190 204 216 217 204 184 171 166 165 164 158 160 157 124 130 183 247 282 276 239 224 228 223 210 196 197 220 230 228 225 226 228 237 250 265 280 288 287 287 289 290 292 295 294 294 297 295 291 292 293 295 297 297 294 291 292 295 297 296 297 298 297 296 295 294 293 291 291 294
206 201 202 208 206 190 186 192 186 177 182 187 185 189 195 197 198 208 219 211 193 188 183 167 154 178 188 190 180 146 154 216 259 285 261 196 203 229 216 203 212 215 215 227 233 233 237 246 260 273 282 290 291 290 290 292 293 294 292 291 297 300 295 291 293 298 301 301 302 304 296 294 298 300 299 299 298 295 295 298 300 300 297 296 298
211 202 195 197 195 192 195 196 187 180 183 186 186 189 195 198 196 202 219 210 184 187 195 175 149 147 182 188 186 186 204 223 215 215 194 176 191 233 220 220 234 227 204 186 195 213 238 262 276 283 289 293 294 296 298 296 296 298 293 289 293 292 289 293 298 301 300 298 303 313 308 299 299 300 300 300 297 294 296 298 299 298 294 292 294